Regional Weather Roundup
Issued by NWS

Home | Current Version | Previous Version | Text Only | Print | Product List | Glossary On
Versions: 1 2 3 4 5 6 7 8 9 10 11 12 13 14 15 16 17 18 19 20 21 22 23 24 25 26 27 28 29 30 31 32 33 34 35 36 37 38 39 40 41 42 43 44 45 46 47 48 49 50
000
ASUS43 KLMK 272010
RWRKY
KENTUCKY REGIONAL WEATHER ROUNDUP
NATIONAL WEATHER SERVICE LOUISVILLE KY
400 PM EDT MON MAR 27 2017

NOTE "FAIR" INDICATES FEW OR NO CLOUDS BELOW 12,000 FEET
WITH NO SIGNIFICANT WEATHER AND/OR OBSTRUCTIONS TO VISIBILITY.

KYZ001>023-026-027-061>063-070>075-272100-
WESTERN AND SOUTH CENTRAL KENTUCKY

CITY           SKY/WX    TMP DP  RH WIND       PRES   REMARKS
PADUCAH        TSTM      58  56  93 SE8       29.79F
HENDERSON      CLOUDY    63  54  72 W17       29.82R
OWENSBORO      CLOUDY    70  59  68 S5        29.82F
HOPKINSVILLE   TSTM      59  57  94 NW10G38   29.86R FOG
BOWLING GREEN  PTSUNNY   75  58  55 S16       29.84F
GLASGOW        MOSUNNY   70  52  52 S14       29.85F
$$

KYZ024-025-028>034-038-045-046-053-272100-
NORTH CENTRAL KENTUCKY

CITY           SKY/WX    TMP DP  RH WIND       PRES   REMARKS
LOUISVILLE/SDF PTSUNNY   72  55  55 S10       29.84F
LOUISVILLE/LOU MOSUNNY   72  57  59 SW7       29.85F
FORT KNOX      TSTM      68  59  73 S7        29.83F
$$

KYZ035>037-039>044-047>052-055>060-089>105-272100-
NORTHEAST KENTUCKY

CITY           SKY/WX    TMP DP  RH WIND       PRES   REMARKS
LEXINGTON      MOSUNNY   70  55  59 S7        29.89F
COVINGTON      CLOUDY    66  55  67 S9        29.88F
FRANKFORT      MOSUNNY   72  54  53 VRB7      29.86F
$$

KYZ054-064>069-076>088-106>120-272100-
SOUTHEAST KENTUCKY

CITY           SKY/WX    TMP DP  RH WIND       PRES   REMARKS
JACKSON        MOSUNNY   65  58  78 CALM      29.96F
LONDON         RAIN      68  58  70 S5        29.94F
SOMERSET       MOSUNNY   72  54  53 S7        29.90F
MIDDLESBORO    CLOUDY    72  57  59 S5        29.96F
MONTICELLO     CLOUDY    74  59  59 VRB5      29.90F
$$





USA.gov is the U.S. government's official web portal to all federal, state and local government web resources and services.